This is the latest recevied weather packets stored in our database for station/object JH5EWP-13. If no packets are shown the sender has not sent any weather packets the latest 10 day(s).
| Time | Temp. | Humidity | Pressure | Rain* | Wind** | Luminosity | Snow |
|---|---|---|---|---|---|---|---|
| 1777527855 | 16.67° C | 77% | 1002.4 hPa | 0 mm | - | - | - |
| 1777526955 | 16.67° C | 78% | 1002.4 hPa | 0 mm | - | - | - |
| 1777526055 | 16.67° C | 79% | 1002.6 hPa | 0 mm | - | - | - |
| 1777525155 | 17.22° C | 79% | 1002.9 hPa | 0 mm | - | - | - |
| 1777524255 | 17.22° C | 80% | 1003.2 hPa | 0 mm | - | - | - |
| 1777523357 | 17.22° C | 80% | 1003.2 hPa | 0 mm | - | - | - |
| 1777522457 | 17.22° C | 81% | 1003.8 hPa | 0 mm | - | - | - |
| 1777521557 | 16.67° C | 81% | 1003.9 hPa | 0 mm | - | - | - |
| 1777520657 | 16.67° C | 81% | 1004.4 hPa | 0 mm | - | - | - |
| 1777519757 | 16.11° C | 81% | 1004.8 hPa | 0.25 mm | - | - | - |
| 1777518856 | 16.11° C | 81% | 1005.1 hPa | 0.25 mm | - | - | - |
| 1777517956 | 16.11° C | 83% | 1005.1 hPa | 0.25 mm | - | - | - |
| 1777517056 | 16.11° C | 84% | 1005.5 hPa | 0.51 mm | - | - | - |
| 1777516156 | 15.56° C | 85% | 1005.8 hPa | 0.51 mm | - | - | - |
| 1777515256 | 15.56° C | 86% | 1006.1 hPa | 0.76 mm | - | - | - |
| 1777514356 | 15° C | 87% | 1006 hPa | 1.02 mm | - | - | - |
| 1777513456 | 14.44° C | 87% | 1006.3 hPa | 1.02 mm | - | - | - |
| 1777512557 | 14.44° C | 87% | 1006.4 hPa | 1.02 mm | - | - | - |
| 1777511657 | 14.44° C | 87% | 1006.5 hPa | 1.78 mm | - | - | - |
| 1777510757 | 13.89° C | 87% | 1006.4 hPa | 2.03 mm | - | - | - |
| 1777509857 | 13.89° C | 87% | 1007 hPa | 2.54 mm | - | - | - |
| 1777508956 | 13.89° C | 87% | 1007.1 hPa | 2.54 mm | - | - | - |
| 1777508056 | 13.33° C | 87% | 1007.2 hPa | 2.29 mm | - | - | - |
| 1777507156 | 13.33° C | 86% | 1007.4 hPa | 1.78 mm | - | - | - |
| 1777506256 | 13.33° C | 86% | 1007.4 hPa | 1.27 mm | - | - | - |
* Rain latest hour (hover to see other rain measurements)
** Current wind speed in m/s (hover to see current wind gust speed)